Regional Weather Roundup
Issued by NWS Sioux Falls, SD

Home | Current Version | Previous Version | Graphics & Text | Print | Product List | Glossary Off
Versions: 1 2 3 4 5 6 7 8 9 10 11 12 13 14 15 16 17 18 19 20 21 22 23 24 25 26 27 28 29 30 31 32 33 34 35 36 37 38 39 40 41 42 43 44 45 46 47 48 49 50

000
ASUS43 KFSD 290302
RWRFSD

WEATHER ROUNDUP FOR SE SOUTH DAKOTA/SW MINNESOTA/NW IOWA
NATIONAL WEATHER SERVICE SIOUX FALLS SD
1000 PM CDT SAT MAY 28 2016

NOTE: "FAIR" INDICATES FEW OR NO CLOUDS BELOW 12,000 FEET WITH NO
SIGNIFICANT WEATHER AND OR OBSTRUCTIONS TO VISIBILITY.


SDZ038>040-050-052>070-290400-
SOUTHEAST SOUTH DAKOTA

CITY           SKY/WX    TMP DP  RH WIND       PRES   REMARKS
CHAMBERLAIN    NOT AVBL
HURON          CLEAR     59  58  96 CALM      29.90R
MADISON        MOCLDY    59  59 100 NW9       29.91R
MITCHELL       CLEAR     62  60  93 W5        29.92R
SIOUX FALLS    CLOUDY    61  58  90 W6        29.90R
WINNER         FAIR      63  56  78 S6        29.94R
YANKTON        MOCLDY    59  55  88 CALM      29.92R
$$

MNZ071-072-080-081-089-090-097-098-290400-
SOUTHWEST MINNESOTA

CITY           SKY/WX    TMP DP  RH WIND       PRES   REMARKS
FAIRMONT       CLOUDY    63  55  77 NW9       29.83R
JACKSON        CLOUDY    61  59  94 NW5       29.86R
LUVERNE        CLOUDY    61  55  82 NW5       29.90R
MARSHALL       CLOUDY    61  59  93 W6        29.87R
MONTEVIDEO     CLOUDY    63  63 100 CALM      29.87R
PIPESTONE      CLOUDY    61  57  88 CALM      29.90R
REDWOOD FALLS  CLOUDY    63  58  83 NW7       29.84R
TRACY          PTCLDY    61  59  94 W3        29.87R
WINDOM         CLOUDY    63  57  82 CALM      29.86R
WORTHINGTON    CLOUDY    61  59  93 NW6       29.88R
$$

IAZ001>003-012>014-020>022-031-032-NEZ013-014-SDZ071-290400-
NORTHWEST IOWA

CITY           SKY/WX    TMP DP  RH WIND       PRES   REMARKS
ESTHERVILLE    CLOUDY    62  61  96 N6        29.84R
SIOUX CITY     CLOUDY    63  58  83 NW9       29.91R
SPENCER        CLOUDY    61  59  93 NW6       29.86R
STORM LAKE     CLOUDY    63  61  94 NW7       29.88R
$$

ABBREVIATIONS USED IN REMARKS
   TC - TEMPERATURE IN CELSIUS
  WCI - WIND CHILL INDEX
   HX - HEAT INDEX
  VSB - VISIBILITY





USA.gov is the U.S. government's official web portal to all federal, state and local government web resources and services.